owner,sensor,date,latitude,longitude,vertical_datum,sea_water_temperature,qcFlag 
WAVCIS,ioos:station:WAVCIS:CSI16:1,2010-07-01T00:00:00Z,29.4012,-89.0355,10.0,29.22,11111222 
WAVCIS,ioos:station:WAVCIS:CSI16:1,2010-07-01T00:15:00Z,29.4012,-89.0355,10.0,29.211,11111222 
WAVCIS,ioos:station:WAVCIS:CSI16:1,2010-07-01T00:30:00Z,29.4012,-89.0355,10.0,29.199,11111222 
WAVCIS,ioos:station:WAVCIS:CSI16:1,2010-07-01T00:45:00Z,29.4012,-89.0355,10.0,29.209,11111222 
WAVCIS,ioos:station:WAVCIS:CSI16:1,2010-07-01T01:00:00Z,29.4012,-89.0355,10.0,29.33,11111222 
WAVCIS,ioos:station:WAVCIS:CSI16:1,2010-07-01T01:15:00Z,29.4012,-89.0355,10.0,29.362,11111222 
WAVCIS,ioos:station:WAVCIS:CSI16:1,2010-07-01T01:30:00Z,29.4012,-89.0355,10.0,29.412,11111222 
WAVCIS,ioos:station:WAVCIS:CSI16:1,2010-07-01T01:45:00Z,29.4012,-89.0355,10.0,29.472,11111222 
WAVCIS,ioos:station:WAVCIS:CSI16:1,2010-07-01T02:00:00Z,29.4012,-89.0355,10.0,29.486,11111222 
WAVCIS,ioos:station:WAVCIS:CSI16:1,2010-07-01T02:15:00Z,29.4012,-89.0355,10.0,29.485,11111222 
WAVCIS,ioos:station:WAVCIS:CSI16:1,2010-07-01T02:30:00Z,29.4012,-89.0355,10.0,29.462,11111222 
WAVCIS,ioos:station:WAVCIS:CSI16:1,2010-07-01T02:45:00Z,29.4012,-89.0355,10.0,29.479,11111222 
WAVCIS,ioos:station:WAVCIS:CSI16:1,2010-07-01T03:00:00Z,29.4012,-89.0355,10.0,29.488,11111222 
WAVCIS,ioos:station:WAVCIS:CSI16:1,2010-07-01T03:15:00Z,29.4012,-89.0355,10.0,29.319,11111222 
WAVCIS,ioos:station:WAVCIS:CSI16:1,2010-07-01T03:30:00Z,29.4012,-89.0355,10.0,29.418,11111222 
WAVCIS,ioos:station:WAVCIS:CSI16:1,2010-07-01T03:45:00Z,29.4012,-89.0355,10.0,29.298,11111222 
WAVCIS,ioos:station:WAVCIS:CSI16:1,2010-07-01T04:00:00Z,29.4012,-89.0355,10.0,29.335,11111222 
WAVCIS,ioos:station:WAVCIS:CSI16:1,2010-07-01T04:15:00Z,29.4012,-89.0355,10.0,29.364,11111222 
WAVCIS,ioos:station:WAVCIS:CSI16:1,2010-07-01T04:30:00Z,29.4012,-89.0355,10.0,29.31,11111222 
WAVCIS,ioos:station:WAVCIS:CSI16:1,2010-07-01T04:45:00Z,29.4012,-89.0355,10.0,29.379,11111222 
WAVCIS,ioos:station:WAVCIS:CSI16:1,2010-07-01T05:00:00Z,29.4012,-89.0355,10.0,29.374,11111222 
WAVCIS,ioos:station:WAVCIS:CSI16:1,2010-07-01T05:15:00Z,29.4012,-89.0355,10.0,29.364,11111222 
WAVCIS,ioos:station:WAVCIS:CSI16:1,2010-07-01T05:30:00Z,29.4012,-89.0355,10.0,29.331,11111222 
WAVCIS,ioos:station:WAVCIS:CSI16:1,2010-07-01T05:45:00Z,29.4012,-89.0355,10.0,29.275,11111222 
WAVCIS,ioos:station:WAVCIS:CSI16:1,2010-07-01T06:00:00Z,29.4012,-89.0355,10.0,29.252,11111222 
WAVCIS,ioos:station:WAVCIS:CSI16:1,2010-07-01T06:15:00Z,29.4012,-89.0355,10.0,29.341,11111222 
WAVCIS,ioos:station:WAVCIS:CSI16:1,2010-07-01T06:30:00Z,29.4012,-89.0355,10.0,29.35,11111222 
WAVCIS,ioos:station:WAVCIS:CSI16:1,2010-07-01T06:45:00Z,29.4012,-89.0355,10.0,29.406,11111222 
WAVCIS,ioos:station:WAVCIS:CSI16:1,2010-07-01T07:00:00Z,29.4012,-89.0355,10.0,29.427,11111222 
WAVCIS,ioos:station:WAVCIS:CSI16:1,2010-07-01T07:15:00Z,29.4012,-89.0355,10.0,29.358,11111222 
WAVCIS,ioos:station:WAVCIS:CSI16:1,2010-07-01T07:30:00Z,29.4012,-89.0355,10.0,29.363,11111222 
WAVCIS,ioos:station:WAVCIS:CSI16:1,2010-07-01T07:45:00Z,29.4012,-89.0355,10.0,29.381,11111222 
WAVCIS,ioos:station:WAVCIS:CSI16:1,2010-07-01T08:00:00Z,29.4012,-89.0355,10.0,29.425,11111222 
WAVCIS,ioos:station:WAVCIS:CSI16:1,2010-07-01T08:15:00Z,29.4012,-89.0355,10.0,29.443,11111222 
WAVCIS,ioos:station:WAVCIS:CSI16:1,2010-07-01T08:30:00Z,29.4012,-89.0355,10.0,29.459,11111222 
WAVCIS,ioos:station:WAVCIS:CSI16:1,2010-07-01T08:45:00Z,29.4012,-89.0355,10.0,29.54,11111222 
WAVCIS,ioos:station:WAVCIS:CSI16:1,2010-07-01T09:00:00Z,29.4012,-89.0355,10.0,29.516,11111222 
WAVCIS,ioos:station:WAVCIS:CSI16:1,2010-07-01T09:15:00Z,29.4012,-89.0355,10.0,29.545,11111222 
WAVCIS,ioos:station:WAVCIS:CSI16:1,2010-07-01T09:30:00Z,29.4012,-89.0355,10.0,29.568,11111222 
WAVCIS,ioos:station:WAVCIS:CSI16:1,2010-07-01T09:45:00Z,29.4012,-89.0355,10.0,29.568,11111222 
WAVCIS,ioos:station:WAVCIS:CSI16:1,2010-07-01T10:00:00Z,29.4012,-89.0355,10.0,29.579,11111222 
WAVCIS,ioos:station:WAVCIS:CSI16:1,2010-07-01T10:15:00Z,29.4012,-89.0355,10.0,29.445,11111222 
WAVCIS,ioos:station:WAVCIS:CSI16:1,2010-07-01T10:30:00Z,29.4012,-89.0355,10.0,28.865,11111222 
WAVCIS,ioos:station:WAVCIS:CSI16:1,2010-07-01T10:45:00Z,29.4012,-89.0355,10.0,28.928,11111222 
WAVCIS,ioos:station:WAVCIS:CSI16:1,2010-07-01T11:00:00Z,29.4012,-89.0355,10.0,28.934,11111222 
WAVCIS,ioos:station:WAVCIS:CSI16:1,2010-07-01T11:15:00Z,29.4012,-89.0355,10.0,28.791,11111222 
WAVCIS,ioos:station:WAVCIS:CSI16:1,2010-07-01T11:30:00Z,29.4012,-89.0355,10.0,28.743,11111222 
WAVCIS,ioos:station:WAVCIS:CSI16:1,2010-07-01T11:45:00Z,29.4012,-89.0355,10.0,28.942,11111222 
WAVCIS,ioos:station:WAVCIS:CSI16:1,2010-07-01T12:00:00Z,29.4012,-89.0355,10.0,28.734,11111222 
WAVCIS,ioos:station:WAVCIS:CSI16:1,2010-07-01T12:15:00Z,29.4012,-89.0355,10.0,28.578,11111222 
WAVCIS,ioos:station:WAVCIS:CSI16:1,2010-07-01T12:30:00Z,29.4012,-89.0355,10.0,28.554,11111222 
WAVCIS,ioos:station:WAVCIS:CSI16:1,2010-07-01T12:45:00Z,29.4012,-89.0355,10.0,28.529,11111222 
WAVCIS,ioos:station:WAVCIS:CSI16:1,2010-07-01T13:00:00Z,29.4012,-89.0355,10.0,28.774,11111222 
WAVCIS,ioos:station:WAVCIS:CSI16:1,2010-07-01T13:15:00Z,29.4012,-89.0355,10.0,29.185,11111222 
WAVCIS,ioos:station:WAVCIS:CSI16:1,2010-07-01T13:30:00Z,29.4012,-89.0355,10.0,28.602,11111222 
WAVCIS,ioos:station:WAVCIS:CSI16:1,2010-07-01T13:45:00Z,29.4012,-89.0355,10.0,28.803,11111222 
WAVCIS,ioos:station:WAVCIS:CSI16:1,2010-07-01T14:00:00Z,29.4012,-89.0355,10.0,28.701,11111222 
WAVCIS,ioos:station:WAVCIS:CSI16:1,2010-07-01T14:15:00Z,29.4012,-89.0355,10.0,28.732,11111222 
WAVCIS,ioos:station:WAVCIS:CSI16:1,2010-07-01T14:30:00Z,29.4012,-89.0355,10.0,28.731,11111222 
WAVCIS,ioos:station:WAVCIS:CSI16:1,2010-07-01T14:45:00Z,29.4012,-89.0355,10.0,28.647,11111222 
WAVCIS,ioos:station:WAVCIS:CSI16:1,2010-07-01T15:00:00Z,29.4012,-89.0355,10.0,28.663,11111222 
WAVCIS,ioos:station:WAVCIS:CSI16:1,2010-07-01T15:15:00Z,29.4012,-89.0355,10.0,28.883,11111222 
WAVCIS,ioos:station:WAVCIS:CSI16:1,2010-07-01T15:30:00Z,29.4012,-89.0355,10.0,28.867,11111222 
WAVCIS,ioos:station:WAVCIS:CSI16:1,2010-07-01T15:45:00Z,29.4012,-89.0355,10.0,29.072,11111222 
WAVCIS,ioos:station:WAVCIS:CSI16:1,2010-07-01T16:00:00Z,29.4012,-89.0355,10.0,28.992,11111222 
WAVCIS,ioos:station:WAVCIS:CSI16:1,2010-07-01T16:15:00Z,29.4012,-89.0355,10.0,28.846,11111222 
WAVCIS,ioos:station:WAVCIS:CSI16:1,2010-07-01T16:30:00Z,29.4012,-89.0355,10.0,28.956,11111222 
WAVCIS,ioos:station:WAVCIS:CSI16:1,2010-07-01T16:45:00Z,29.4012,-89.0355,10.0,28.855,11111222 
WAVCIS,ioos:station:WAVCIS:CSI16:1,2010-07-01T17:00:00Z,29.4012,-89.0355,10.0,28.937,11111222 
WAVCIS,ioos:station:WAVCIS:CSI16:1,2010-07-01T17:15:00Z,29.4012,-89.0355,10.0,29.014,11111222 
WAVCIS,ioos:station:WAVCIS:CSI16:1,2010-07-01T17:30:00Z,29.4012,-89.0355,10.0,29.258,11111222 
WAVCIS,ioos:station:WAVCIS:CSI16:1,2010-07-01T17:45:00Z,29.4012,-89.0355,10.0,29.297,11111222 
WAVCIS,ioos:station:WAVCIS:CSI16:1,2010-07-01T18:00:00Z,29.4012,-89.0355,10.0,29.067,11111222 
WAVCIS,ioos:station:WAVCIS:CSI16:1,2010-07-01T18:15:00Z,29.4012,-89.0355,10.0,29.185,11111222 
WAVCIS,ioos:station:WAVCIS:CSI16:1,2010-07-01T18:30:00Z,29.4012,-89.0355,10.0,29.168,11111222 
WAVCIS,ioos:station:WAVCIS:CSI16:1,2010-07-01T18:45:00Z,29.4012,-89.0355,10.0,29.143,11111222 
WAVCIS,ioos:station:WAVCIS:CSI16:1,2010-07-01T19:00:00Z,29.4012,-89.0355,10.0,29.091,11111222 
WAVCIS,ioos:station:WAVCIS:CSI16:1,2010-07-01T19:15:00Z,29.4012,-89.0355,10.0,28.955,11111222 
WAVCIS,ioos:station:WAVCIS:CSI16:1,2010-07-01T19:30:00Z,29.4012,-89.0355,10.0,28.997,11111222 
WAVCIS,ioos:station:WAVCIS:CSI16:1,2010-07-01T19:45:00Z,29.4012,-89.0355,10.0,29.069,11111222 
WAVCIS,ioos:station:WAVCIS:CSI16:1,2010-07-01T20:00:00Z,29.4012,-89.0355,10.0,29.335,11111222 
WAVCIS,ioos:station:WAVCIS:CSI16:1,2010-07-01T20:15:00Z,29.4012,-89.0355,10.0,29.276,11111222 
WAVCIS,ioos:station:WAVCIS:CSI16:1,2010-07-01T20:30:00Z,29.4012,-89.0355,10.0,29.318,11111222 
WAVCIS,ioos:station:WAVCIS:CSI16:1,2010-07-01T20:45:00Z,29.4012,-89.0355,10.0,29.056,11111222 
WAVCIS,ioos:station:WAVCIS:CSI16:1,2010-07-01T21:00:00Z,29.4012,-89.0355,10.0,29.051,11111222 
WAVCIS,ioos:station:WAVCIS:CSI16:1,2010-07-01T21:15:00Z,29.4012,-89.0355,10.0,28.96,11111222 
WAVCIS,ioos:station:WAVCIS:CSI16:1,2010-07-01T21:30:00Z,29.4012,-89.0355,10.0,28.947,11111222 
WAVCIS,ioos:station:WAVCIS:CSI16:1,2010-07-01T21:45:00Z,29.4012,-89.0355,10.0,28.927,11111222 
WAVCIS,ioos:station:WAVCIS:CSI16:1,2010-07-01T22:00:00Z,29.4012,-89.0355,10.0,28.979,11111222 
WAVCIS,ioos:station:WAVCIS:CSI16:1,2010-07-01T22:15:00Z,29.4012,-89.0355,10.0,28.984,11111222 
WAVCIS,ioos:station:WAVCIS:CSI16:1,2010-07-01T22:30:00Z,29.4012,-89.0355,10.0,28.991,11111222 
WAVCIS,ioos:station:WAVCIS:CSI16:1,2010-07-01T22:45:00Z,29.4012,-89.0355,10.0,28.995,11111222 
WAVCIS,ioos:station:WAVCIS:CSI16:1,2010-07-01T23:00:00Z,29.4012,-89.0355,10.0,28.957,11111222 
WAVCIS,ioos:station:WAVCIS:CSI16:1,2010-07-01T23:15:00Z,29.4012,-89.0355,10.0,28.926,11111222 
WAVCIS,ioos:station:WAVCIS:CSI16:1,2010-07-01T23:30:00Z,29.4012,-89.0355,10.0,28.925,11111222 
WAVCIS,ioos:station:WAVCIS:CSI16:1,2010-07-01T23:45:00Z,29.4012,-89.0355,10.0,28.909,11111222 
WAVCIS,ioos:station:WAVCIS:CSI16:1,2010-07-02T00:00:00Z,29.4012,-89.0355,10.0,28.771,11111222 
WAVCIS,ioos:station:WAVCIS:CSI16:1,2010-07-02T00:15:00Z,29.4012,-89.0355,10.0,28.785,11111222 
WAVCIS,ioos:station:WAVCIS:CSI16:1,2010-07-02T00:30:00Z,29.4012,-89.0355,10.0,28.568,11111222 
WAVCIS,ioos:station:WAVCIS:CSI16:1,2010-07-02T00:45:00Z,29.4012,-89.0355,10.0,28.599,11111222 
WAVCIS,ioos:station:WAVCIS:CSI16:1,2010-07-02T01:00:00Z,29.4012,-89.0355,10.0,28.661,11111222 
WAVCIS,ioos:station:WAVCIS:CSI16:1,2010-07-02T01:15:00Z,29.4012,-89.0355,10.0,28.784,11111222 
WAVCIS,ioos:station:WAVCIS:CSI16:1,2010-07-02T01:30:00Z,29.4012,-89.0355,10.0,28.904,11111222 
WAVCIS,ioos:station:WAVCIS:CSI16:1,2010-07-02T01:45:00Z,29.4012,-89.0355,10.0,28.857,11111222 
WAVCIS,ioos:station:WAVCIS:CSI16:1,2010-07-02T02:00:00Z,29.4012,-89.0355,10.0,28.871,11111222 
WAVCIS,ioos:station:WAVCIS:CSI16:1,2010-07-02T02:15:00Z,29.4012,-89.0355,10.0,28.923,11111222 
WAVCIS,ioos:station:WAVCIS:CSI16:1,2010-07-02T02:30:00Z,29.4012,-89.0355,10.0,29.019,11111222 
WAVCIS,ioos:station:WAVCIS:CSI16:1,2010-07-02T02:45:00Z,29.4012,-89.0355,10.0,29.029,11111222 
WAVCIS,ioos:station:WAVCIS:CSI16:1,2010-07-02T03:00:00Z,29.4012,-89.0355,10.0,29.012,11111222 
WAVCIS,ioos:station:WAVCIS:CSI16:1,2010-07-02T03:15:00Z,29.4012,-89.0355,10.0,29.08,11111222 
WAVCIS,ioos:station:WAVCIS:CSI16:1,2010-07-02T03:30:00Z,29.4012,-89.0355,10.0,29.164,11111222 
WAVCIS,ioos:station:WAVCIS:CSI16:1,2010-07-02T03:45:00Z,29.4012,-89.0355,10.0,28.951,11111222 
WAVCIS,ioos:station:WAVCIS:CSI16:1,2010-07-02T04:00:00Z,29.4012,-89.0355,10.0,29.188,11111222 
WAVCIS,ioos:station:WAVCIS:CSI16:1,2010-07-02T04:15:00Z,29.4012,-89.0355,10.0,29.223,11111222 
WAVCIS,ioos:station:WAVCIS:CSI16:1,2010-07-02T04:30:00Z,29.4012,-89.0355,10.0,29.199,11111222 
WAVCIS,ioos:station:WAVCIS:CSI16:1,2010-07-02T04:45:00Z,29.4012,-89.0355,10.0,29.148,11111222 
WAVCIS,ioos:station:WAVCIS:CSI16:1,2010-07-02T05:00:00Z,29.4012,-89.0355,10.0,29.061,11111222 
WAVCIS,ioos:station:WAVCIS:CSI16:1,2010-07-02T05:15:00Z,29.4012,-89.0355,10.0,29.205,11111222 
WAVCIS,ioos:station:WAVCIS:CSI16:1,2010-07-02T05:30:00Z,29.4012,-89.0355,10.0,29.285,11111222 
WAVCIS,ioos:station:WAVCIS:CSI16:1,2010-07-02T05:45:00Z,29.4012,-89.0355,10.0,29.362,11111222 
WAVCIS,ioos:station:WAVCIS:CSI16:1,2010-07-02T06:00:00Z,29.4012,-89.0355,10.0,29.452,11111222 
WAVCIS,ioos:station:WAVCIS:CSI16:1,2010-07-02T06:15:00Z,29.4012,-89.0355,10.0,29.343,11111222 
WAVCIS,ioos:station:WAVCIS:CSI16:1,2010-07-02T06:30:00Z,29.4012,-89.0355,10.0,29.395,11111222 
WAVCIS,ioos:station:WAVCIS:CSI16:1,2010-07-02T06:45:00Z,29.4012,-89.0355,10.0,29.436,11111222 
WAVCIS,ioos:station:WAVCIS:CSI16:1,2010-07-02T07:00:00Z,29.4012,-89.0355,10.0,29.402,11111222 
WAVCIS,ioos:station:WAVCIS:CSI16:1,2010-07-02T07:15:00Z,29.4012,-89.0355,10.0,29.463,11111222 
WAVCIS,ioos:station:WAVCIS:CSI16:1,2010-07-02T07:30:00Z,29.4012,-89.0355,10.0,29.496,11111222 
WAVCIS,ioos:station:WAVCIS:CSI16:1,2010-07-02T07:45:00Z,29.4012,-89.0355,10.0,29.415,11111222 
WAVCIS,ioos:station:WAVCIS:CSI16:1,2010-07-02T08:00:00Z,29.4012,-89.0355,10.0,29.474,11111222 
WAVCIS,ioos:station:WAVCIS:CSI16:1,2010-07-02T08:15:00Z,29.4012,-89.0355,10.0,29.426,11111222 
WAVCIS,ioos:station:WAVCIS:CSI16:1,2010-07-02T08:30:00Z,29.4012,-89.0355,10.0,29.483,11111222 
WAVCIS,ioos:station:WAVCIS:CSI16:1,2010-07-02T08:45:00Z,29.4012,-89.0355,10.0,29.496,11111222 
WAVCIS,ioos:station:WAVCIS:CSI16:1,2010-07-02T09:00:00Z,29.4012,-89.0355,10.0,29.515,11111222 
WAVCIS,ioos:station:WAVCIS:CSI16:1,2010-07-02T09:15:00Z,29.4012,-89.0355,10.0,29.529,11111222 
WAVCIS,ioos:station:WAVCIS:CSI16:1,2010-07-02T09:30:00Z,29.4012,-89.0355,10.0,29.553,11111222 
WAVCIS,ioos:station:WAVCIS:CSI16:1,2010-07-02T09:45:00Z,29.4012,-89.0355,10.0,29.577,11111222 
WAVCIS,ioos:station:WAVCIS:CSI16:1,2010-07-02T10:00:00Z,29.4012,-89.0355,10.0,29.581,11111222 
WAVCIS,ioos:station:WAVCIS:CSI16:1,2010-07-02T10:15:00Z,29.4012,-89.0355,10.0,29.623,11111222 
WAVCIS,ioos:station:WAVCIS:CSI16:1,2010-07-02T10:30:00Z,29.4012,-89.0355,10.0,29.612,11111222 
WAVCIS,ioos:station:WAVCIS:CSI16:1,2010-07-02T10:45:00Z,29.4012,-89.0355,10.0,29.598,11111222 
WAVCIS,ioos:station:WAVCIS:CSI16:1,2010-07-02T11:00:00Z,29.4012,-89.0355,10.0,29.626,11111222 
WAVCIS,ioos:station:WAVCIS:CSI16:1,2010-07-02T11:15:00Z,29.4012,-89.0355,10.0,29.627,11111222 
WAVCIS,ioos:station:WAVCIS:CSI16:1,2010-07-02T11:30:00Z,29.4012,-89.0355,10.0,29.652,11111222 
WAVCIS,ioos:station:WAVCIS:CSI16:1,2010-07-02T11:45:00Z,29.4012,-89.0355,10.0,29.671,11111222 
WAVCIS,ioos:station:WAVCIS:CSI16:1,2010-07-02T12:00:00Z,29.4012,-89.0355,10.0,29.654,11111222 
WAVCIS,ioos:station:WAVCIS:CSI16:1,2010-07-02T12:15:00Z,29.4012,-89.0355,10.0,29.638,11111222 
WAVCIS,ioos:station:WAVCIS:CSI16:1,2010-07-02T12:30:00Z,29.4012,-89.0355,10.0,29.657,11111222 
WAVCIS,ioos:station:WAVCIS:CSI16:1,2010-07-02T12:45:00Z,29.4012,-89.0355,10.0,29.639,11111222 
WAVCIS,ioos:station:WAVCIS:CSI16:1,2010-07-02T13:00:00Z,29.4012,-89.0355,10.0,29.625,11111222 
WAVCIS,ioos:station:WAVCIS:CSI16:1,2010-07-02T13:15:00Z,29.4012,-89.0355,10.0,28.769,11111222 
WAVCIS,ioos:station:WAVCIS:CSI16:1,2010-07-02T13:30:00Z,29.4012,-89.0355,10.0,28.785,11111222 
WAVCIS,ioos:station:WAVCIS:CSI16:1,2010-07-02T13:45:00Z,29.4012,-89.0355,10.0,28.705,11111222 
WAVCIS,ioos:station:WAVCIS:CSI16:1,2010-07-02T14:00:00Z,29.4012,-89.0355,10.0,28.444,11111222 
WAVCIS,ioos:station:WAVCIS:CSI16:1,2010-07-02T14:15:00Z,29.4012,-89.0355,10.0,28.255,11111222 
WAVCIS,ioos:station:WAVCIS:CSI16:1,2010-07-02T14:30:00Z,29.4012,-89.0355,10.0,28.51,11111222 
WAVCIS,ioos:station:WAVCIS:CSI16:1,2010-07-02T14:45:00Z,29.4012,-89.0355,10.0,28.645,11111222 
WAVCIS,ioos:station:WAVCIS:CSI16:1,2010-07-02T15:00:00Z,29.4012,-89.0355,10.0,28.723,11111222 
WAVCIS,ioos:station:WAVCIS:CSI16:1,2010-07-02T15:15:00Z,29.4012,-89.0355,10.0,28.725,11111222 
WAVCIS,ioos:station:WAVCIS:CSI16:1,2010-07-02T15:30:00Z,29.4012,-89.0355,10.0,28.855,11111222 
WAVCIS,ioos:station:WAVCIS:CSI16:1,2010-07-02T15:45:00Z,29.4012,-89.0355,10.0,28.837,11111222 
WAVCIS,ioos:station:WAVCIS:CSI16:1,2010-07-02T16:00:00Z,29.4012,-89.0355,10.0,28.782,11111222 
WAVCIS,ioos:station:WAVCIS:CSI16:1,2010-07-02T16:15:00Z,29.4012,-89.0355,10.0,28.601,11111222 
WAVCIS,ioos:station:WAVCIS:CSI16:1,2010-07-02T16:30:00Z,29.4012,-89.0355,10.0,28.722,11111222 
WAVCIS,ioos:station:WAVCIS:CSI16:1,2010-07-02T16:45:00Z,29.4012,-89.0355,10.0,28.77,11111222 
WAVCIS,ioos:station:WAVCIS:CSI16:1,2010-07-02T17:00:00Z,29.4012,-89.0355,10.0,29.016,11111222 
WAVCIS,ioos:station:WAVCIS:CSI16:1,2010-07-02T17:15:00Z,29.4012,-89.0355,10.0,28.938,11111222 
WAVCIS,ioos:station:WAVCIS:CSI16:1,2010-07-02T17:30:00Z,29.4012,-89.0355,10.0,28.853,11111222 
WAVCIS,ioos:station:WAVCIS:CSI16:1,2010-07-02T17:45:00Z,29.4012,-89.0355,10.0,28.763,11111222 
WAVCIS,ioos:station:WAVCIS:CSI16:1,2010-07-02T18:00:00Z,29.4012,-89.0355,10.0,28.862,11111222 
WAVCIS,ioos:station:WAVCIS:CSI16:1,2010-07-02T18:15:00Z,29.4012,-89.0355,10.0,28.842,11111222 
WAVCIS,ioos:station:WAVCIS:CSI16:1,2010-07-02T18:30:00Z,29.4012,-89.0355,10.0,28.953,11111222 
WAVCIS,ioos:station:WAVCIS:CSI16:1,2010-07-02T18:45:00Z,29.4012,-89.0355,10.0,28.747,11111222 
WAVCIS,ioos:station:WAVCIS:CSI16:1,2010-07-02T19:00:00Z,29.4012,-89.0355,10.0,28.915,11111222 
WAVCIS,ioos:station:WAVCIS:CSI16:1,2010-07-02T19:15:00Z,29.4012,-89.0355,10.0,28.77,11111222 
WAVCIS,ioos:station:WAVCIS:CSI16:1,2010-07-02T19:30:00Z,29.4012,-89.0355,10.0,28.825,11111222 
WAVCIS,ioos:station:WAVCIS:CSI16:1,2010-07-02T19:45:00Z,29.4012,-89.0355,10.0,29.642,11111222 
WAVCIS,ioos:station:WAVCIS:CSI16:1,2010-07-02T20:00:00Z,29.4012,-89.0355,10.0,29.099,11111222 
WAVCIS,ioos:station:WAVCIS:CSI16:1,2010-07-02T20:15:00Z,29.4012,-89.0355,10.0,28.951,11111222 
WAVCIS,ioos:station:WAVCIS:CSI16:1,2010-07-02T20:30:00Z,29.4012,-89.0355,10.0,29.043,11111222 
WAVCIS,ioos:station:WAVCIS:CSI16:1,2010-07-02T20:45:00Z,29.4012,-89.0355,10.0,29.064,11111222 
WAVCIS,ioos:station:WAVCIS:CSI16:1,2010-07-02T21:00:00Z,29.4012,-89.0355,10.0,29.026,11111222 
WAVCIS,ioos:station:WAVCIS:CSI16:1,2010-07-02T21:15:00Z,29.4012,-89.0355,10.0,29.19,11111222 
WAVCIS,ioos:station:WAVCIS:CSI16:1,2010-07-02T21:30:00Z,29.4012,-89.0355,10.0,29.2,11111222 
WAVCIS,ioos:station:WAVCIS:CSI16:1,2010-07-02T21:45:00Z,29.4012,-89.0355,10.0,29.242,11111222 
WAVCIS,ioos:station:WAVCIS:CSI16:1,2010-07-02T22:00:00Z,29.4012,-89.0355,10.0,29.229,11111222 
WAVCIS,ioos:station:WAVCIS:CSI16:1,2010-07-02T22:15:00Z,29.4012,-89.0355,10.0,29.444,11111222 
WAVCIS,ioos:station:WAVCIS:CSI16:1,2010-07-02T22:30:00Z,29.4012,-89.0355,10.0,29.566,11111222 
WAVCIS,ioos:station:WAVCIS:CSI16:1,2010-07-02T22:45:00Z,29.4012,-89.0355,10.0,29.468,11111222 
WAVCIS,ioos:station:WAVCIS:CSI16:1,2010-07-02T23:00:00Z,29.4012,-89.0355,10.0,29.603,11111222 
WAVCIS,ioos:station:WAVCIS:CSI16:1,2010-07-02T23:15:00Z,29.4012,-89.0355,10.0,29.626,11111222 
WAVCIS,ioos:station:WAVCIS:CSI16:1,2010-07-02T23:30:00Z,29.4012,-89.0355,10.0,29.61,11111222 
WAVCIS,ioos:station:WAVCIS:CSI16:1,2010-07-02T23:45:00Z,29.4012,-89.0355,10.0,29.554,11111222 
WAVCIS,ioos:station:WAVCIS:CSI16:1,2010-07-03T00:00:00Z,29.4012,-89.0355,10.0,29.586,11111222 
WAVCIS,ioos:station:WAVCIS:CSI16:1,2010-07-03T00:15:00Z,29.4012,-89.0355,10.0,29.822,11111222 
WAVCIS,ioos:station:WAVCIS:CSI16:1,2010-07-03T00:30:00Z,29.4012,-89.0355,10.0,29.541,11111222 
WAVCIS,ioos:station:WAVCIS:CSI16:1,2010-07-03T00:45:00Z,29.4012,-89.0355,10.0,29.317,11111222 
WAVCIS,ioos:station:WAVCIS:CSI16:1,2010-07-03T01:00:00Z,29.4012,-89.0355,10.0,29.416,11111222 
WAVCIS,ioos:station:WAVCIS:CSI16:1,2010-07-03T01:15:00Z,29.4012,-89.0355,10.0,29.312,11111222 
WAVCIS,ioos:station:WAVCIS:CSI16:1,2010-07-03T01:30:00Z,29.4012,-89.0355,10.0,29.282,11111222 
WAVCIS,ioos:station:WAVCIS:CSI16:1,2010-07-03T01:45:00Z,29.4012,-89.0355,10.0,29.268,11111222 
WAVCIS,ioos:station:WAVCIS:CSI16:1,2010-07-03T02:00:00Z,29.4012,-89.0355,10.0,29.414,11111222 
WAVCIS,ioos:station:WAVCIS:CSI16:1,2010-07-03T02:15:00Z,29.4012,-89.0355,10.0,29.45,11111222 
WAVCIS,ioos:station:WAVCIS:CSI16:1,2010-07-03T02:30:00Z,29.4012,-89.0355,10.0,29.481,11111222 
WAVCIS,ioos:station:WAVCIS:CSI16:1,2010-07-03T02:45:00Z,29.4012,-89.0355,10.0,29.573,11111222 
WAVCIS,ioos:station:WAVCIS:CSI16:1,2010-07-03T03:00:00Z,29.4012,-89.0355,10.0,29.503,11111222 
WAVCIS,ioos:station:WAVCIS:CSI16:1,2010-07-03T03:15:00Z,29.4012,-89.0355,10.0,29.492,11111222 
WAVCIS,ioos:station:WAVCIS:CSI16:1,2010-07-03T03:30:00Z,29.4012,-89.0355,10.0,29.494,11111222 
WAVCIS,ioos:station:WAVCIS:CSI16:1,2010-07-03T03:45:00Z,29.4012,-89.0355,10.0,29.522,11111222 
WAVCIS,ioos:station:WAVCIS:CSI16:1,2010-07-03T04:00:00Z,29.4012,-89.0355,10.0,29.481,11111222 
WAVCIS,ioos:station:WAVCIS:CSI16:1,2010-07-03T04:15:00Z,29.4012,-89.0355,10.0,29.391,11111222 
WAVCIS,ioos:station:WAVCIS:CSI16:1,2010-07-03T04:30:00Z,29.4012,-89.0355,10.0,29.41,11111222 
WAVCIS,ioos:station:WAVCIS:CSI16:1,2010-07-03T04:45:00Z,29.4012,-89.0355,10.0,29.539,11111222 
WAVCIS,ioos:station:WAVCIS:CSI16:1,2010-07-03T05:00:00Z,29.4012,-89.0355,10.0,29.493,11111222 
WAVCIS,ioos:station:WAVCIS:CSI16:1,2010-07-03T05:15:00Z,29.4012,-89.0355,10.0,29.639,11111222 
WAVCIS,ioos:station:WAVCIS:CSI16:1,2010-07-03T05:30:00Z,29.4012,-89.0355,10.0,29.539,11111222 
WAVCIS,ioos:station:WAVCIS:CSI16:1,2010-07-03T05:45:00Z,29.4012,-89.0355,10.0,29.519,11111222 
WAVCIS,ioos:station:WAVCIS:CSI16:1,2010-07-03T06:00:00Z,29.4012,-89.0355,10.0,29.437,11111222 
WAVCIS,ioos:station:WAVCIS:CSI16:1,2010-07-03T06:15:00Z,29.4012,-89.0355,10.0,29.587,11111222 
WAVCIS,ioos:station:WAVCIS:CSI16:1,2010-07-03T06:30:00Z,29.4012,-89.0355,10.0,29.379,11111222 
WAVCIS,ioos:station:WAVCIS:CSI16:1,2010-07-03T06:45:00Z,29.4012,-89.0355,10.0,29.349,11111222 
WAVCIS,ioos:station:WAVCIS:CSI16:1,2010-07-03T07:00:00Z,29.4012,-89.0355,10.0,29.302,11111222 
WAVCIS,ioos:station:WAVCIS:CSI16:1,2010-07-03T07:15:00Z,29.4012,-89.0355,10.0,29.326,11111222 
WAVCIS,ioos:station:WAVCIS:CSI16:1,2010-07-03T07:30:00Z,29.4012,-89.0355,10.0,29.335,11111222 
WAVCIS,ioos:station:WAVCIS:CSI16:1,2010-07-03T07:45:00Z,29.4012,-89.0355,10.0,29.384,11111222 
WAVCIS,ioos:station:WAVCIS:CSI16:1,2010-07-03T08:00:00Z,29.4012,-89.0355,10.0,29.436,11111222 
WAVCIS,ioos:station:WAVCIS:CSI16:1,2010-07-03T08:15:00Z,29.4012,-89.0355,10.0,29.505,11111222 
WAVCIS,ioos:station:WAVCIS:CSI16:1,2010-07-03T08:30:00Z,29.4012,-89.0355,10.0,29.551,11111222 
WAVCIS,ioos:station:WAVCIS:CSI16:1,2010-07-03T08:45:00Z,29.4012,-89.0355,10.0,29.615,11111222 
WAVCIS,ioos:station:WAVCIS:CSI16:1,2010-07-03T09:00:00Z,29.4012,-89.0355,10.0,29.646,11111222 
WAVCIS,ioos:station:WAVCIS:CSI16:1,2010-07-03T09:15:00Z,29.4012,-89.0355,10.0,29.664,11111222 
WAVCIS,ioos:station:WAVCIS:CSI16:1,2010-07-03T09:30:00Z,29.4012,-89.0355,10.0,29.686,11111222 
WAVCIS,ioos:station:WAVCIS:CSI16:1,2010-07-03T09:45:00Z,29.4012,-89.0355,10.0,29.698,11111222 
WAVCIS,ioos:station:WAVCIS:CSI16:1,2010-07-03T10:00:00Z,29.4012,-89.0355,10.0,29.695,11111222 
WAVCIS,ioos:station:WAVCIS:CSI16:1,2010-07-03T10:15:00Z,29.4012,-89.0355,10.0,29.689,11111222 
WAVCIS,ioos:station:WAVCIS:CSI16:1,2010-07-03T10:30:00Z,29.4012,-89.0355,10.0,29.67,11111222 
WAVCIS,ioos:station:WAVCIS:CSI16:1,2010-07-03T10:45:00Z,29.4012,-89.0355,10.0,29.657,11111222 
WAVCIS,ioos:station:WAVCIS:CSI16:1,2010-07-03T11:00:00Z,29.4012,-89.0355,10.0,29.667,11111222 
WAVCIS,ioos:station:WAVCIS:CSI16:1,2010-07-03T11:15:00Z,29.4012,-89.0355,10.0,29.663,11111222 
WAVCIS,ioos:station:WAVCIS:CSI16:1,2010-07-03T11:30:00Z,29.4012,-89.0355,10.0,29.664,11111222 
WAVCIS,ioos:station:WAVCIS:CSI16:1,2010-07-03T11:45:00Z,29.4012,-89.0355,10.0,29.662,11111222 
WAVCIS,ioos:station:WAVCIS:CSI16:1,2010-07-03T12:00:00Z,29.4012,-89.0355,10.0,29.643,11111222 
WAVCIS,ioos:station:WAVCIS:CSI16:1,2010-07-03T12:15:00Z,29.4012,-89.0355,10.0,29.646,11111222 
WAVCIS,ioos:station:WAVCIS:CSI16:1,2010-07-03T12:30:00Z,29.4012,-89.0355,10.0,29.636,11111222 
WAVCIS,ioos:station:WAVCIS:CSI16:1,2010-07-03T12:45:00Z,29.4012,-89.0355,10.0,29.62,11111222 
WAVCIS,ioos:station:WAVCIS:CSI16:1,2010-07-03T13:00:00Z,29.4012,-89.0355,10.0,29.618,11111222 
WAVCIS,ioos:station:WAVCIS:CSI16:1,2010-07-03T13:15:00Z,29.4012,-89.0355,10.0,29.625,11111222 
WAVCIS,ioos:station:WAVCIS:CSI16:1,2010-07-03T13:30:00Z,29.4012,-89.0355,10.0,29.628,11111222 
WAVCIS,ioos:station:WAVCIS:CSI16:1,2010-07-03T13:45:00Z,29.4012,-89.0355,10.0,29.63,11111222 
WAVCIS,ioos:station:WAVCIS:CSI16:1,2010-07-03T14:00:00Z,29.4012,-89.0355,10.0,29.629,11111222 
WAVCIS,ioos:station:WAVCIS:CSI16:1,2010-07-03T14:15:00Z,29.4012,-89.0355,10.0,29.631,11111222 
WAVCIS,ioos:station:WAVCIS:CSI16:1,2010-07-03T14:30:00Z,29.4012,-89.0355,10.0,29.621,11111222 